When you browse on this site, cookies collect data to enhance your experience and personalize the content and advertising you see.
Visit our Privacy Policy to learn more. By continuing to use the site, you agree to this use of cookies and data.
  • In Hungary
  • List of Countries
  • For 7 days
  • Water Temperature
  • Weather Map
  • News
  • Weather Widgets
  • user-avatar
    Login

    Hourly Weather Córdoba

    Today, 27 February, Thursday

    Time Temperature Precipitation Wind Pressure Humidity
    00:00 +20°C° 0 mm 1 mps 725 mmHg 38%
    01:00 +20°C° 0 mm 1 mps 724 mmHg 39%
    02:00 +19°C° 0 mm 1 mps 724 mmHg 41%
    03:00 +19°C° 0 mm 1 mps 724 mmHg 41%
    04:00 +19°C° 0 mm 1 mps 724 mmHg 42%
    05:00 +19°C° 0 mm 1 mps 724 mmHg 43%
    06:00 +21°C° 0 mm 1 mps 724 mmHg 38%
    07:00 +23°C° 0 mm 1 mps 725 mmHg 34%
    08:00 +25°C° 0 mm 1 mps 725 mmHg 30%
    09:00 +27°C° 0 mm 2 mps 725 mmHg 27%
    10:00 +29°C° 0 mm 3 mps 725 mmHg 24%
    11:00 +33°C° 0 mm 4 mps 725 mmHg 21%
    12:00 +34°C° 0 mm 3 mps 725 mmHg 19%
    13:00 +35°C° 0 mm 3 mps 724 mmHg 18%
    14:00 +36°C° 0 mm 3 mps 724 mmHg 16%
    15:00 +36°C° 0 mm 3 mps 723 mmHg 17%
    16:00 +36°C° 0 mm 3 mps 722 mmHg 17%
    17:00 +36°C° 0 mm 3 mps 722 mmHg 17%
    18:00 +33°C° 0 mm 4 mps 722 mmHg 21%
    19:00 +30°C° 0 mm 4 mps 722 mmHg 24%
    20:00 +27°C° 0 mm 4 mps 722 mmHg 28%
    21:00 +26°C° 0 mm 4 mps 722 mmHg 30%
    22:00 +25°C° 0 mm 3 mps 723 mmHg 32%
    23:00 +25°C° 0 mm 3 mps 723 mmHg 34%

    Tomorrow, 28 February, Friday

    Time Temperature Precipitation Wind Pressure Humidity
    00:00 +24°C° 0 mm 3 mps 723 mmHg 35%
    01:00 +24°C° 0 mm 2 mps 723 mmHg 35%
    02:00 +24°C° 0 mm 2 mps 723 mmHg 36%
    03:00 +23°C° 0 mm 2 mps 723 mmHg 36%
    04:00 +23°C° 0 mm 2 mps 723 mmHg 37%
    05:00 +23°C° 0 mm 2 mps 723 mmHg 37%
    06:00 +25°C° 0 mm 2 mps 724 mmHg 34%
    07:00 +27°C° 0 mm 2 mps 724 mmHg 31%
    08:00 +29°C° 0 mm 2 mps 725 mmHg 28%
    09:00 +32°C° 0 mm 2 mps 725 mmHg 24%
    10:00 +35°C° 0 mm 3 mps 725 mmHg 21%
    11:00 +38°C° 0 mm 3 mps 725 mmHg 17%
    12:00 +39°C° 0 mm 3 mps 725 mmHg 15%
    13:00 +39°C° 0 mm 3 mps 724 mmHg 13%
    14:00 +40°C° 0 mm 3 mps 724 mmHg 11%
    15:00 +41°C° 0 mm 4 mps 724 mmHg 12%
    16:00 +40°C° 0 mm 4 mps 723 mmHg 12%
    17:00 +40°C° 0 mm 5 mps 722 mmHg 13%
    18:00 +36°C° 0 mm 4 mps 723 mmHg 16%
    19:00 +33°C° 0 mm 4 mps 723 mmHg 18%
    20:00 +29°C° 0 mm 4 mps 723 mmHg 21%
    21:00 +28°C° 0 mm 4 mps 724 mmHg 22%
    22:00 +27°C° 0 mm 3 mps 724 mmHg 23%
    23:00 +27°C° 0 mm 3 mps 725 mmHg 24%

    Day after tomorrow, 29 February, Saturday

    Time Temperature Precipitation Wind Pressure Humidity
    00:00 +26°C° 0 mm 2 mps 725 mmHg 25%
    01:00 +25°C° 0 mm 2 mps 725 mmHg 26%
    02:00 +24°C° 0 mm 1 mps 725 mmHg 27%
    03:00 +24°C° 0 mm 1 mps 725 mmHg 28%
    04:00 +23°C° 0 mm 1 mps 725 mmHg 29%
    05:00 +23°C° 0 mm 1 mps 725 mmHg 30%
    06:00 +25°C° 0 mm 1 mps 726 mmHg 28%
    07:00 +28°C° 0 mm 1 mps 726 mmHg 25%
    08:00 +30°C° 0 mm 1 mps 727 mmHg 23%
    09:00 +32°C° 0 mm 2 mps 727 mmHg 20%
    10:00 +36°C° 0 mm 3 mps 727 mmHg 17%
    11:00 +39°C° 0 mm 3 mps 727 mmHg 13%
    12:00 +41°C° 0 mm 4 mps 727 mmHg 12%
    13:00 +41°C° 0 mm 4 mps 726 mmHg 11%
    14:00 +42°C° 0 mm 4 mps 726 mmHg 11%
    15:00 +41°C° 0 mm 5 mps 726 mmHg 11%
    16:00 +41°C° 0 mm 6 mps 725 mmHg 12%
    17:00 +40°C° 0 mm 6 mps 725 mmHg 12%
    18:00 +36°C° 0 mm 5 mps 725 mmHg 16%
    19:00 +33°C° 0 mm 4 mps 725 mmHg 19%
    20:00 +29°C° 0 mm 4 mps 725 mmHg 22%
    21:00 +28°C° 0 mm 3 mps 725 mmHg 24%
    22:00 +27°C° 0 mm 3 mps 725 mmHg 26%
    23:00 +26°C° 0 mm 3 mps 726 mmHg 28%

    1 March, Sunday

    Time Temperature Precipitation Wind Pressure Humidity
    00:00 +26°C° 0 mm 3 mps 726 mmHg 29%
    01:00 +26°C° 0 mm 3 mps 726 mmHg 30%
    02:00 +25°C° 0 mm 3 mps 726 mmHg 31%
    03:00 +25°C° 0 mm 3 mps 726 mmHg 32%
    04:00 +25°C° 0 mm 3 mps 726 mmHg 33%
    05:00 +24°C° 0 mm 3 mps 726 mmHg 34%
    06:00 +26°C° 0 mm 4 mps 726 mmHg 32%
    07:00 +28°C° 0 mm 4 mps 727 mmHg 29%
    08:00 +29°C° 0 mm 5 mps 727 mmHg 27%
    09:00 +33°C° 0 mm 6 mps 727 mmHg 23%
    10:00 +35°C° 0 mm 6 mps 727 mmHg 19%
    11:00 +38°C° 0 mm 7 mps 727 mmHg 15%
    12:00 +39°C° 0 mm 8 mps 727 mmHg 14%
    13:00 +39°C° 0 mm 8 mps 726 mmHg 13%
    14:00 +40°C° 0 mm 8 mps 726 mmHg 13%
    15:00 +39°C° 0 mm 8 mps 725 mmHg 13%
    16:00 +39°C° 0 mm 7 mps 725 mmHg 14%
    17:00 +38°C° 0 mm 7 mps 724 mmHg 14%
    18:00 +35°C° 0 mm 6 mps 724 mmHg 17%
    19:00 +32°C° 0 mm 5 mps 724 mmHg 20%
    20:00 +28°C° 0 mm 4 mps 724 mmHg 23%
    21:00 +27°C° 0 mm 3 mps 725 mmHg 23%
    22:00 +26°C° 0 mm 3 mps 725 mmHg 24%
    23:00 +25°C° 0 mm 3 mps 725 mmHg 25%

    2 March, Monday

    Time Temperature Precipitation Wind Pressure Humidity
    00:00 +25°C° 0 mm 3 mps 725 mmHg 27%
    01:00 +24°C° 0 mm 3 mps 725 mmHg 28%
    02:00 +24°C° 0 mm 2 mps 725 mmHg 30%
    03:00 +23°C° 0 mm 2 mps 725 mmHg 32%
    04:00 +23°C° 0 mm 2 mps 725 mmHg 33%
    05:00 +21°C° 0 mm 2 mps 725 mmHg 35%
    06:00 +24°C° 0 mm 3 mps 725 mmHg 32%
    07:00 +26°C° 0 mm 4 mps 726 mmHg 30%
    08:00 +28°C° 0 mm 5 mps 726 mmHg 27%
    09:00 +30°C° 0 mm 6 mps 726 mmHg 24%
    10:00 +33°C° 0 mm 6 mps 726 mmHg 21%
    11:00 +35°C° 0 mm 7 mps 726 mmHg 18%
    12:00 +36°C° 0 mm 7 mps 725 mmHg 17%
    13:00 +38°C° 0 mm 7 mps 725 mmHg 16%
    14:00 +39°C° 0 mm 6 mps 724 mmHg 15%
    15:00 +39°C° 0 mm 6 mps 724 mmHg 15%
    16:00 +38°C° 0 mm 6 mps 723 mmHg 15%
    17:00 +38°C° 0 mm 6 mps 722 mmHg 15%
    18:00 +34°C° 0 mm 5 mps 722 mmHg 17%
    19:00 +32°C° 0 mm 4 mps 722 mmHg 20%
    20:00 +28°C° 0 mm 3 mps 722 mmHg 22%
    21:00 +27°C° 0 mm 3 mps 723 mmHg 23%
    22:00 +26°C° 0 mm 2 mps 723 mmHg 25%
    23:00 +25°C° 0 mm 2 mps 723 mmHg 26%

    3 March, Tuesday

    Time Temperature Precipitation Wind Pressure Humidity
    00:00 +24°C° 0 mm 2 mps 723 mmHg 27%
    01:00 +23°C° 0 mm 1 mps 723 mmHg 28%
    02:00 +23°C° 0 mm 1 mps 723 mmHg 29%
    03:00 +22°C° 0 mm 1 mps 722 mmHg 31%
    04:00 +22°C° 0 mm 1 mps 722 mmHg 32%
    05:00 +21°C° 0 mm 1 mps 722 mmHg 34%
    06:00 +24°C° 0 mm 1 mps 723 mmHg 30%
    07:00 +26°C° 0 mm 1 mps 723 mmHg 27%
    08:00 +28°C° 0 mm 1 mps 724 mmHg 24%
    09:00 +31°C° 0 mm 2 mps 724 mmHg 21%
    10:00 +34°C° 0 mm 4 mps 724 mmHg 18%
    11:00 +37°C° 0 mm 5 mps 724 mmHg 15%
    12:00 +38°C° 0 mm 4 mps 723 mmHg 14%
    13:00 +40°C° 0 mm 4 mps 723 mmHg 13%
    14:00 +41°C° 0 mm 4 mps 722 mmHg 12%
    15:00 +41°C° 0 mm 4 mps 722 mmHg 13%
    16:00 +40°C° 0 mm 4 mps 721 mmHg 13%
    17:00 +40°C° 0 mm 4 mps 721 mmHg 13%
    18:00 +36°C° 0 mm 4 mps 721 mmHg 16%
    19:00 +33°C° 0 mm 3 mps 721 mmHg 19%
    20:00 +29°C° 0 mm 3 mps 721 mmHg 22%
    21:00 +28°C° 0 mm 3 mps 721 mmHg 24%
    22:00 +27°C° 0 mm 3 mps 721 mmHg 26%
    23:00 +27°C° 0 mm 2 mps 722 mmHg 28%
    Show more